Location: Bratislava
(48.1500°N, 17.1170°E)
Time: 07:33:30
(UTC+01:00)

ISS - Visible Passes

Search period start: 22 January 2019 00:00
Search period end: 01 February 2019 00:00
Orbit: 404 x 410 km, 51.6° (Epoch: 22 January)

Date Brightness Start Highest point End Pass type
(mag) Time Alt. Az. Time Alt. Az. Time Alt. Az.
22 Jan -1.3 17:56:47 10° SE 17:57:15 10° SE 17:57:16 10° SE visible
22 Jan -0.5 19:29:57 10° SW 19:30:01 10° SW 19:30:01 10° SW visible
23 Jan -2.4 18:38:56 10° SSW 18:41:05 29° S 18:41:05 29° S visible
24 Jan -2.2 17:48:11 10° SSW 17:50:46 21° SE 17:52:04 17° ESE visible
24 Jan -1.1 19:23:42 10° WSW 19:24:48 20° WSW 19:24:48 20° WSW visible
25 Jan -3.8 18:32:23 10° SW 18:35:40 67° SSE 18:35:43 67° SE visible
26 Jan -3.1 17:41:13 10° SW 17:44:21 42° SSE 17:46:33 17° E visible
26 Jan -1.6 19:17:37 10° W 19:19:16 26° W 19:19:16 26° W visible
27 Jan -3.8 18:26:08 10° WSW 18:29:26 72° NNW 18:30:03 53° NE visible
28 Jan -3.8 17:34:44 10° WSW 17:38:02 81° SSE 17:40:47 14° ENE visible
28 Jan -1.9 19:11:34 10° W 19:13:30 29° WNW 19:13:30 29° WNW visible
29 Jan -3.3 18:20:01 10° W 18:23:15 50° N 18:24:13 36° NE visible
29 Jan -0.2 19:56:55 10° WNW 19:56:56 10° WNW 19:56:56 10° WNW visible
30 Jan -3.6 17:28:29 10° W 17:31:46 63° NNW 17:34:53 11° ENE visible
30 Jan -2.2 19:05:26 10° WNW 19:07:36 32° NW 19:07:36 32° NW visible
31 Jan -3.1 18:13:54 10° WNW 18:17:05 43° N 18:18:17 29° NE visible
31 Jan -0.5 19:50:37 10° WNW 19:50:59 13° WNW 19:50:59 13° WNW visible
